Showing default

COSMOS 1987 (GLONASS), 19749

Orbit data source: Space-Track

COSMOS 1987 (GLONASS), 19749 is a payload satellite owned by UNKS (CIS) in MEO that was launched on Tue, 10 Jan 1989 UTC via a PROTON-K/DM-2 launch vehicle from the Tyuratam Missile And Space Complex (TTMTR). Payload-class satellites include a variety of spacecraft equipped with specific instruments for various scientific and technological missions. These include communications satellites like Starlink; space stations such as the ISS; scientific satellites like the Hubble; Earth observation satellites from companies like Planet Labs, Umbra, and HawkEye 360; GPS; miniature CubeSats for education and research; and military/defense satellites.

Loading next visibility...
Identifier
19749, 1989-001A
Orbit
MEO
Country
Flag of CISCIS
Related business
Manufacturer
Omsk Av. Zav.
Mission
Non-operational Defense Navigation
Bus & Motor
URAGAN, Unknown motor
Mass
1,300 kg wet, ~1,200 kg dry
Launch date (UTC)
1989-01-10 (37 years ago)
Launch vehicle
PROTON-K/DM-2
Launch site
Tyuratam Missile And Space Complex (TTMTR)
Object type
Payload
Rocket body
Debris
Shape & HBR
Cyl + 2 Pan, 4.2 m
Radar Cross Section
14.707 m², Large (>1 m²)

Expand to show TLE details & history
Last TLE update: 7 hours ago

TLE from 7 hours ago
0 COSMOS 1987 (GLONASS)
1 19749U 89001A   25258.19664206  .00000035  00000-0  00000-0 0  9992
2 19749  64.7749  81.7016 0004731 230.5848 311.0751  2.13073244285433
Epoch: 2025-09-15T04:43Z
TLE epoch observation values (Epoch: 2025-09-15T04:43:09.873Z)
Latitude
-1.47564°
Longitude
-162.8036°
Altitude
19,125.032 km
Speed
3.954 km/s
True Right ascension
17h 29m 34s
True Declination
-1° 28' 23"
Sunlit
Object was in daylight at epoch
Visualization orbit readout
Latitude
Unknown
Longitude
Unknown
Altitude
Unknown
Speed
Unknown
Apparent Right ascension
Unknown
Apparent Declination
Unknown
Sunlit
N/A
Visualization observer readout
Local Sidereal Time
04:06:05
Azimuth
Unknown
Elevation
Unknown
Doppler factor
Unknown
Orbital elements
Apogee altitude
19,143.874 km
Perigee altitude
19,119.736 km
Semi-major axis
25,509.942 km
Eccentricity
0.00047
Inclination
64.7749°
RAAN
81.7016°
Arg. of periapsis
230.5848°
True anomaly
311.03422°
Mean anomaly
311.0751°
Eccentric anomaly
311.05466°
Mean motion
0.5327 °/min
Orbital period
675.81 mins
BSTAR
0
Loading maneuver chart data...
Computing Atmospheric mass density...
Loading historical data...
Loading historical data...
Loading historical data...
Loading historical data...
Loading historical data...
Loading historical data...
Loading historical data...

Documentation

Showing up to 5 results
|